Location: Asheville, NC
(35.6000°N, 82.5500°W)
Time: 10:45:33

YUBILEINY - Pass Details

Date: 13 March 2018
Orbit: 1478 x 1509 km, 82.5° (Epoch: 21 March)

Event Time Altitude Azimuth Distance (km) Brightness Sun altitude
Rises 06:45:12 0° 349° (N) 4,611 ? -12.7°
Reaches altitude 10° 06:48:06 10° 347° (NNW) 3,632 ? -12.1°
Maximum altitude 06:56:42 66° 268° (W) 1,604 ? -10.4°
Drops below altitude 10° 07:05:19 10° 188° (S) 3,638 ? -8.6°
Sets 07:08:14 0° 186° (S) 4,619 ? -8.1°
